Flag for Greece Weather past 2 weeks in Iráklion, Crete, Greece

Now
61 °F

Scattered clouds.


Feels Like: 61 °F
Forecast: 48 / 62 °F
Wind: 6 mph from East

Location: Heraklion Airport

Current Time: Jan 26, 2015 at 5:02:27 PM

Latest Report: Jan 26, 2015 at 4:20 PM


Visibility: N/A

Pressure: 30.04 "Hg

Humidity: 68%

Dew point: 50 °F

Location of IráklionLocation

Historic Weather in Iráklion — Graph

°F

Iráklion temperature yesterday

Maximum temperature yesterday: 61 °F (at 12:50 PM)
Minimum temperature yesterday: 52 °F (at 4:50 PM)
Average temperature yesterday: 55 °F

Past Weeks' High & Low Weather Summary

 TemperatureHumidityPressure
High73 °F (Jan 21, 12:50 PM)94% (Jan 13, 4:50 PM)30.33 "Hg (Jan 13, 4:50 PM)
Low45 °F (Jan 18, 1:50 AM)28% (Jan 22, 5:50 PM)29.77 "Hg (Jan 23, 2:50 PM)
Average57 °F69%30.03 "Hg
* Reported Jan 11 3:20 PM — Jan 26 3:50 PM, Iráklion, Weather by CustomWeather, © 2014

Note: Actual official high and low records may vary slightly from our data, if they occured in-between our weather recording intervals... More about our weather records

Advertising

Iráklion weather history for previous 24 hours

 ConditionsComfort  
Time TempWeatherWind HumidityBarometerVisibility
3:50 PM
Jan 26
61 °FScattered clouds.5 mph68%30.04 "HgN/A
3:20 PM63 °FPassing clouds.7 mph59%30.04 "HgN/A
2:50 PM63 °FPassing clouds.6 mph59%30.04 "HgN/A
2:20 PM63 °FPassing clouds.6 mph59%30.04 "HgN/A
1:50 PM63 °FPassing clouds.5 mph59%30.04 "HgN/A
1:20 PM63 °FPassing clouds.5 mph59%30.04 "HgN/A
12:50 PM63 °FPassing clouds.6 mph59%30.04 "HgN/A
12:20 PM63 °FPassing clouds.6 mph59%30.07 "HgN/A
11:50 AM63 °FPassing clouds.5 mph59%30.07 "HgN/A
11:20 AM61 °FPassing clouds.3 mph59%30.07 "HgN/A
10:50 AM61 °FPassing clouds.3 mph59%30.07 "HgN/A
10:20 AM61 °FPassing clouds.2 mph59%30.07 "HgN/A
9:50 AM61 °FPassing clouds.8 mph63%30.04 "HgN/A
9:20 AM57 °FPassing clouds.7 mph72%30.04 "HgN/A
8:50 AM55 °FPassing clouds.7 mph72%30.04 "HgN/A
8:20 AM52 °FPassing clouds.7 mph77%30.04 "HgN/A
7:50 AM50 °FPassing clouds.6 mph82%30.04 "HgN/A
7:20 AM50 °FPassing clouds.6 mph82%30.01 "HgN/A
6:50 AM50 °FPassing clouds.6 mph82%30.01 "HgN/A
6:20 AM54 °FPassing clouds.6 mph72%29.98 "HgN/A
5:50 AM54 °FPassing clouds.5 mph72%29.98 "HgN/A
5:20 AM54 °FPassing clouds.5 mph72%29.95 "HgN/A
4:50 AM54 °FPassing clouds.5 mph72%29.95 "HgN/A
4:20 AM54 °FPassing clouds.5 mph67%29.95 "HgN/A
3:50 AM54 °FPassing clouds.6 mph67%29.95 "HgN/A
3:20 AM55 °FPassing clouds.14 mph63%29.92 "HgN/A
2:50 AM55 °FPassing clouds.14 mph63%29.92 "HgN/A
2:20 AM55 °FPassing clouds.13 mph63%29.92 "HgN/A
1:50 AM55 °FPassing clouds.13 mph63%29.92 "HgN/A
1:20 AM55 °FPassing clouds.12 mph63%29.89 "HgN/A
12:50 AM55 °FPassing clouds.14 mph63%29.89 "HgN/A
12:20 AM55 °FPassing clouds.17 mph59%29.89 "HgN/A
11:50 PM
Jan 25
55 °FPassing clouds.20 mph59%29.89 "HgN/A
11:20 PM55 °FPassing clouds.17 mph59%29.89 "HgN/A
10:50 PM55 °FPassing clouds.18 mph59%29.89 "HgN/A
10:20 PM52 °FPassing clouds.12 mph72%29.89 "HgN/A
9:50 PM52 °FPassing clouds.16 mph72%29.89 "HgN/A
9:20 PM52 °FPassing clouds.17 mph72%29.89 "HgN/A
8:50 PM52 °FPassing clouds.16 mph72%29.89 "HgN/A
7:50 PM52 °FPassing clouds.16 mph72%29.89 "HgN/A
7:20 PM54 °FPassing clouds.14 mph63%29.89 "HgN/A
6:50 PM54 °FPassing clouds.20 mph63%29.89 "HgN/A
6:20 PM52 °FPassing clouds.13 mph77%29.86 "HgN/A
5:50 PM52 °FPassing clouds.9 mph77%29.86 "HgN/A
5:20 PM52 °FPartly sunny.8 mph88%29.86 "HgN/A
Weather by CustomWeather, © 2014

See weather overviewHow to use our weather pages